Meath Environmental Platform

Observations for Trim Patrick St

Time AQI Temp °C Hum % Pres Pa CO μg/m³ H₂S μg/m³ NO μg/m³ NO₂ μg/m³ O₃ μg/m³ SO₂ μg/m³ PM1 μg/m³ PM2.5 μg/m³ PM10 μg/m³
Wednesday 5 August 2026
23:31 2 14.4 68 80,400 0.19 2.96 3.3 12.31 60.8 0 3.71 8.91 9.8
23:30 2 14.5 67 79,971 0.19 2.86 3.24 10.98 56.17 0 5.43 9.68 10.65
23:29 2 14.5 67 79,628 0.17 2.62 3.2 10.78 53.89 0 2 6.05 6.65
23:28 2 14.4 68 79,337 0.2 2.57 3.24 12.78 60.67 0 2.86 6.76 7.44
23:27 2 14.5 67 79,038 0.19 1.27 3.28 12.66 58.53 0 2.86 7.5 8.25
23:26 2 14.4 67 78,875 0.18 0.47 3.24 8.4 44.23 0 2 6.06 6.67
23:25 2 14.5 67 78,812 0.18 0.88 3.23 8.63 44.49 0 2.86 6.78 7.46
23:24 2 14.5 67 78,667 0.17 1.25 3.25 10.58 51.84 0 2.86 6.06 6.67
23:23 2 14.5 67 78,523 0.18 0.91 3.26 9.98 55 0 2.86 6.07 6.68
23:22 2 14.5 66 78,395 0.17 0.6 3.19 9.57 56.45 0 2 6.11 6.72
23:21 2 14.5 67 78,316 0.16 0.62 3.22 9.25 45.66 0 2 6.8 7.48
23:20 2 14.5 67 78,194 0.16 1.04 3.2 10.49 58.34 0 2.86 6.08 6.69
23:19 2 14.6 67 78,051 0.15 0.47 3.18 8.39 50.35 0 2 6.09 6.7
23:18 2 14.5 67 77,968 0.15 1.12 3.16 9.09 58.26 0 2 6.08 6.69
23:17 2 14.5 67 77,870 0.14 0.65 3.16 8.73 49.77 0 2 5.35 5.88
23:16 2 14.5 67 77,768 0.16 0.73 3.15 9.92 59.79 0 3.71 6.82 7.5
23:15 2 14.6 66 77,669 0.15 0.34 3.19 9 51.45 0 2 6.11 6.72
23:14 2 14.6 66 77,603 0.15 0.6 3.17 9.22 57.23 0 2 5.39 5.92
23:12 2 14.6 66 77,504 0.16 0.47 3.17 9.08 56.16 0 2.86 6.86 7.54
23:11 2 14.6 66 77,479 0.17 0.34 3.18 9.35 56.03 0 2 6.11 6.73